,,,PA_Meas_PMT16A,,PR_Meas_QMR101_102,,RH_Meas_QMH101,,SR_Meas_QMS101,,TA_Meas_QMH101,,GenWind,,GenWind,
date,time,status,PA,status,PR,status,RH,status,SR,status,TA,status,DirAvg,status,SpdAvg,
2010-11-01, 00:00:04,VALID,1002.22,VALID,0,INVALID,163.578,VALID,0,VALID,25.0663,VALID,72,VALID,0.909766,
2010-11-01, 00:01:04,VALID,1002.24,VALID,0,INVALID,163.601,VALID,0,VALID,25.0079,VALID,115,VALID,1.78789,
2010-11-01, 00:02:04,VALID,1002.28,VALID,0,INVALID,163.617,VALID,0,VALID,24.9282,VALID,89,VALID,1.03594,
2010-11-01, 00:03:04,VALID,1002.33,VALID,0,INVALID,163.609,VALID,0,VALID,24.893,VALID,100,VALID,1.63281,
2010-11-01, 00:04:04,VALID,1002.34,VALID,0,INVALID,163.639,VALID,0,VALID,24.7937,VALID,124,VALID,1.09648,
2010-11-01, 00:05:04,VALID,1002.37,VALID,0,INVALID,163.624,VALID,0,VALID,24.714,VALID,145,VALID,1.64922,
2010-11-01, 00:06:04,VALID,1002.38,VALID,0,INVALID,163.632,VALID,0,VALID,24.6574,VALID,133,VALID,1.27266,
2010-11-01, 00:07:04,VALID,1002.39,VALID,0,INVALID,163.617,VALID,0.100563,VALID,24.6166,VALID,122,VALID,1.0707,
2010-11-01, 00:08:04,VALID,1002.38,VALID,0,INVALID,163.639,VALID,0,VALID,24.6398,VALID,106,VALID,1.10547,
2010-11-01, 00:09:04,VALID,1002.38,VALID,0,INVALID,163.639,VALID,0,VALID,24.5601,VALID,132,VALID,1.41484,
2010-11-01, 00:10:04,VALID,1002.38,VALID,0,INVALID,163.647,VALID,0,VALID,24.5796,VALID,105,VALID,0.59375,
2010-11-01, 00:11:04,VALID,1002.37,VALID,0,INVALID,163.609,VALID,0,VALID,24.5406,VALID,122,VALID,0.9875,
2010-11-01, 00:12:04,VALID,1002.37,VALID,0,INVALID,163.655,VALID,0,VALID,24.4998,VALID,90,VALID,0.886719,
2010-11-01, 00:13:04,VALID,1002.34,VALID,0,INVALID,163.647,VALID,0,VALID,24.5017,VALID,121,VALID,0.807031,
2010-11-01, 00:14:04,VALID,1002.34,VALID,0,INVALID,163.655,VALID,0,VALID,24.4822,VALID,98,VALID,1.15,
2010-11-01, 00:15:04,VALID,1002.34,VALID,0,INVALID,163.647,VALID,0,VALID,24.4628,VALID,95,VALID,1.39023,
2010-11-01, 00:16:04,VALID,1002.28,VALID,0,INVALID,163.655,VALID,0,VALID,24.4433,VALID,111,VALID,1.25,
2010-11-01, 00:17:04,VALID,1002.28,VALID,0,INVALID,163.639,VALID,0,VALID,24.4433,VALID,104,VALID,0.797266,
2010-11-01, 00:18:04,VALID,1002.24,VALID,0,INVALID,163.632,VALID,0,VALID,24.4025,VALID,108,VALID,0.95,
2010-11-01, 00:19:04,VALID,1002.23,VALID,0,INVALID,163.662,VALID,0,VALID,24.4238,VALID,119,VALID,0.802734,
2010-11-01, 00:20:04,VALID,1002.23,VALID,0,INVALID,163.647,VALID,0,VALID,24.422,VALID,114,VALID,0.969141,
2010-11-01, 00:21:04,VALID,1002.27,VALID,0,INVALID,163.662,VALID,0,VALID,24.4433,VALID,113,VALID,0.674219,
2010-11-01, 00:22:04,VALID,1002.25,VALID,0,INVALID,163.639,VALID,0,VALID,24.4043,VALID,125,VALID,0.966797,
2010-11-01, 00:23:04,VALID,1002.29,VALID,0,INVALID,163.655,VALID,0,VALID,24.383,VALID,119,VALID,1.1875,
2010-11-01, 00:24:04,VALID,1002.33,VALID,0,INVALID,163.647,VALID,0,VALID,24.4043,VALID,97,VALID,1.11641,
2010-11-01, 00:25:04,VALID,1002.34,VALID,0,INVALID,163.662,VALID,0,VALID,24.3849,VALID,106,VALID,1.71836,
2010-11-01, 00:26:04,VALID,1002.35,VALID,0,INVALID,163.678,VALID,0,VALID,24.3849,VALID,127,VALID,1.72734,
2010-11-01, 00:27:04,VALID,1002.37,VALID,0,INVALID,163.647,VALID,0,VALID,24.3849,VALID,114,VALID,1.79102,
2010-11-01, 00:28:04,VALID,1002.4,VALID,0,INVALID,163.662,VALID,0,VALID,24.3246,VALID,122,VALID,2.37539,
2010-11-01, 00:29:04,VALID,1002.4,VALID,0,INVALID,163.617,VALID,0,VALID,24.3654,VALID,116,VALID,1.6668,
2010-11-01, 00:30:04,VALID,1002.44,VALID,0,INVALID,163.647,VALID,0,VALID,24.3441,VALID,115,VALID,1.14648,
2010-11-01, 00:31:04,VALID,1002.46,VALID,0,INVALID,163.678,VALID,0,VALID,24.3246,VALID,100,VALID,1.16133,
2010-11-01, 00:32:04,VALID,1002.5,VALID,0,INVALID,163.655,VALID,0,VALID,24.307,VALID,94,VALID,1.16641,
2010-11-01, 00:33:04,VALID,1002.49,VALID,0,INVALID,163.639,VALID,0,VALID,24.2875,VALID,106,VALID,1.55352,
2010-11-01, 00:34:04,VALID,1002.45,VALID,0,VALID,104,VALID,0,VALID,24.2681,VALID,105,VALID,1.94062,
2010-11-01, 00:35:04,VALID,1002.44,VALID,0,VALID,95.6585,VALID,0,VALID,24.2857,VALID,112,VALID,1.6668,
2010-11-01, 00:36:04,VALID,1002.43,VALID,0,VALID,94.949,VALID,0,VALID,24.3246,VALID,109,VALID,1.60898,
2010-11-01, 00:37:04,VALID,1002.4,VALID,0,VALID,92.0272,VALID,0,VALID,24.3654,VALID,86,VALID,2.13555,
2010-11-01, 00:38:04,VALID,1002.35,VALID,0,VALID,91.7678,VALID,0,VALID,24.4238,VALID,125,VALID,2.02734,
2010-11-01, 00:39:04,VALID,1002.32,VALID,0,VALID,92.7214,VALID,0,VALID,24.4043,VALID,66,VALID,1.76563,
2010-11-01, 00:40:04,VALID,1002.33,VALID,0,VALID,93.2859,VALID,0,VALID,24.3441,VALID,95,VALID,1.0918,
2010-11-01, 00:41:04,VALID,1002.29,VALID,0,VALID,92.462,VALID,0,VALID,24.3246,VALID,110,VALID,1.73828,
2010-11-01, 00:42:04,VALID,1002.28,VALID,0,VALID,93.4462,VALID,0,VALID,24.3052,VALID,75,VALID,0.8625,
2010-11-01, 00:43:04,VALID,1002.27,VALID,0,VALID,93.1868,VALID,0,VALID,24.2662,VALID,84,VALID,1.31172,
2010-11-01, 00:44:04,VALID,1002.31,VALID,0,VALID,94.3616,VALID,0,VALID,24.2468,VALID,70,VALID,0.713281,
2010-11-01, 00:45:04,VALID,1002.35,VALID,0,VALID,93.469,VALID,0,VALID,24.1884,VALID,78,VALID,2.03672,
2010-11-01, 00:46:04,VALID,1002.39,VALID,0,VALID,94.0641,VALID,0,VALID,24.13,VALID,91,VALID,1.08164,
2010-11-01, 00:47:04,VALID,1002.42,VALID,0,VALID,94.6439,VALID,0,VALID,24.091,VALID,36,VALID,1.0793,
2010-11-01, 00:48:04,VALID,1002.47,VALID,0,VALID,94.3006,VALID,0,VALID,24.0752,VALID,80,VALID,1.51328,
2010-11-01, 00:49:04,VALID,1002.56,VALID,0,VALID,95.422,VALID,0,VALID,24.015,VALID,94,VALID,1.28594,
2010-11-01, 00:50:04,VALID,1002.52,VALID,0,VALID,95.1627,VALID,0,VALID,23.9353,VALID,74,VALID,1.68359,
2010-11-01, 00:51:04,VALID,1002.56,VALID,0,VALID,95.773,VALID,0,VALID,23.8964,VALID,74,VALID,1.03477,
2010-11-01, 00:52:04,VALID,1002.58,VALID,0,VALID,95.6509,VALID,0,VALID,23.8185,VALID,100,VALID,2.06133,
2010-11-01, 00:53:04,VALID,1002.57,VALID,0,VALID,95.1627,VALID,0,VALID,23.7601,VALID,100,VALID,1.45195,
2010-11-01, 00:54:04,VALID,1002.58,VALID,0,VALID,95.7424,VALID,0,VALID,23.7407,VALID,90,VALID,1.46367,
2010-11-01, 00:55:04,VALID,1002.59,VALID,0,VALID,95.6433,VALID,0,VALID,23.6823,VALID,92,VALID,1.16562,
2010-11-01, 00:56:04,VALID,1002.6,VALID,0,VALID,96.5511,VALID,0,VALID,23.6434,VALID,63,VALID,1.03164,
2010-11-01, 00:57:04,VALID,1002.61,VALID,0,VALID,95.5746,VALID,0,VALID,23.5868,VALID,17,VALID,0.662109,
2010-11-01, 00:58:04,VALID,1002.63,VALID,0,VALID,95.3686,VALID,0,VALID,23.5071,VALID,87,VALID,0.989453,
2010-11-01, 00:59:04,VALID,1002.67,VALID,0,VALID,94.4761,VALID,0,VALID,23.4682,VALID,65,VALID,1.17578,
2010-11-01, 01:00:04,VALID,1002.7,VALID,0,VALID,94.0031,VALID,0,VALID,23.4487,VALID,122,VALID,1.21641,
2010-11-01, 01:01:04,VALID,1002.73,VALID,0,VALID,94.4227,VALID,0.100563,VALID,23.4311,VALID,121,VALID,1.33828,
2010-11-01, 01:02:04,VALID,1002.75,VALID,0,VALID,96.0247,VALID,0,VALID,23.3921,VALID,151,VALID,2.06641,
2010-11-01, 01:03:04,VALID,1002.79,VALID,0,VALID,95.9179,VALID,0,VALID,23.332,VALID,174,VALID,1.54375,
2010-11-01, 01:04:04,VALID,1002.84,VALID,0,VALID,98.1608,VALID,0,VALID,23.3337,VALID,175,VALID,1.17539,
2010-11-01, 01:05:04,VALID,1002.87,VALID,0,VALID,99.7705,VALID,0,VALID,23.2152,VALID,159,VALID,1.28516,
2010-11-01, 01:06:04,VALID,1002.89,VALID,0.5,VALID,104,VALID,0,VALID,23.1568,VALID,149,VALID,1.81406,
2010-11-01, 01:07:04,VALID,1002.94,VALID,0,VALID,104,VALID,0,VALID,23.0984,VALID,176,VALID,1.77734,
2010-11-01, 01:08:04,VALID,1002.93,VALID,0,INVALID,111.633,VALID,0,VALID,23.0595,VALID,182,VALID,1.56523,
2010-11-01, 01:09:04,VALID,1002.96,VALID,0,INVALID,111.679,VALID,0,VALID,23.0189,VALID,174,VALID,1.32695,
2010-11-01, 01:10:04,VALID,1002.97,VALID,0,INVALID,135.008,VALID,0,VALID,23.0206,VALID,176,VALID,1.04219,
2010-11-01, 01:11:04,VALID,1002.96,VALID,0,INVALID,152.387,VALID,0,VALID,22.9605,VALID,175,VALID,0.946484,
2010-11-01, 01:12:04,VALID,1002.96,VALID,0,INVALID,153.478,VALID,0,VALID,22.9428,VALID,136,VALID,1.00234,
2010-11-01, 01:13:04,VALID,1002.98,VALID,0,INVALID,163.739,VALID,0,VALID,22.964,VALID,117,VALID,0.869531,
2010-11-01, 01:14:04,VALID,1002.98,VALID,0,INVALID,163.716,VALID,0,VALID,22.9251,VALID,124,VALID,0.795703,
2010-11-01, 01:15:04,VALID,1002.95,VALID,0,INVALID,163.739,VALID,0,VALID,22.8844,VALID,96,VALID,0.575,
2010-11-01, 01:16:04,VALID,1003.01,VALID,0.5,INVALID,163.769,VALID,0.100563,VALID,22.8649,VALID,119,VALID,0.651172,
2010-11-01, 01:17:04,VALID,1003.02,VALID,0,INVALID,163.769,VALID,0.100563,VALID,22.8048,VALID,103,VALID,1.10586,
2010-11-01, 01:18:04,VALID,1003.04,VALID,0,INVALID,163.769,VALID,0.100563,VALID,22.7854,VALID,113,VALID,0.969922,
2010-11-01, 01:19:04,VALID,1003.1,VALID,0,INVALID,163.769,VALID,0,VALID,22.7482,VALID,107,VALID,0.928125,
2010-11-01, 01:20:04,VALID,1003.14,VALID,0,INVALID,163.792,VALID,0.100563,VALID,22.7076,VALID,97,VALID,1.03945,
2010-11-01, 01:21:04,VALID,1003.15,VALID,0,INVALID,163.807,VALID,0.100563,VALID,22.6881,VALID,97,VALID,1.04102,
2010-11-01, 01:22:04,VALID,1003.16,VALID,0,INVALID,163.762,VALID,0,VALID,22.6686,VALID,72,VALID,0.663281,
2010-11-01, 01:23:04,VALID,1003.19,VALID,0,INVALID,163.784,VALID,0.100563,VALID,22.6704,VALID,74,VALID,0.607813,
2010-11-01, 01:24:04,VALID,1003.18,VALID,0,INVALID,163.777,VALID,0,VALID,22.6704,VALID,76,VALID,0.268359,
2010-11-01, 01:25:04,VALID,1003.21,VALID,0,INVALID,163.792,VALID,0,VALID,22.6492,VALID,121,VALID,1.12773,
2010-11-01, 01:26:04,VALID,1003.21,VALID,0,INVALID,163.8,VALID,0.100563,VALID,22.6509,VALID,119,VALID,0.702344,
2010-11-01, 01:27:04,VALID,1003.23,VALID,0,INVALID,163.762,VALID,0.100563,VALID,22.6492,VALID,88,VALID,0.785156,
2010-11-01, 01:28:04,VALID,1003.28,VALID,0.5,INVALID,163.807,VALID,0,VALID,22.6297,VALID,75,VALID,1.1,
2010-11-01, 01:29:04,VALID,1003.3,VALID,0,INVALID,163.769,VALID,0,VALID,22.6492,VALID,52,VALID,0.867969,
2010-11-01, 01:30:04,VALID,1003.31,VALID,0,INVALID,163.792,VALID,0.100563,VALID,22.6898,VALID,31,VALID,0.716406,
2010-11-01, 01:31:04,VALID,1003.31,VALID,0,INVALID,163.754,VALID,0,VALID,22.6915,VALID,19,VALID,0.862891,
2010-11-01, 01:32:04,VALID,1003.29,VALID,0,INVALID,163.777,VALID,0,VALID,22.6509,VALID,3,VALID,0.969922,
2010-11-01, 01:33:04,VALID,1003.3,VALID,0,INVALID,163.784,VALID,0,VALID,22.6315,VALID,21,VALID,0.840625,
2010-11-01, 01:34:04,VALID,1003.28,VALID,0,INVALID,163.815,VALID,0,VALID,22.612,VALID,22,VALID,1.36641,
2010-11-01, 01:35:04,VALID,1003.26,VALID,0,INVALID,163.8,VALID,0,VALID,22.612,VALID,12,VALID,0.955469,
2010-11-01, 01:36:04,VALID,1003.25,VALID,0,INVALID,163.777,VALID,0,VALID,22.5925,VALID,29,VALID,0.8875,
2010-11-01, 01:37:04,VALID,1003.26,VALID,0,INVALID,163.8,VALID,0,VALID,22.6137,VALID,21,VALID,0.955469,
2010-11-01, 01:38:04,VALID,1003.27,VALID,0,INVALID,163.777,VALID,0,VALID,22.6154,VALID,33,VALID,0.439453,
2010-11-01, 01:39:04,VALID,1003.26,VALID,0.5,INVALID,163.762,VALID,0,VALID,22.5731,VALID,53,VALID,0.627734,
2010-11-01, 01:40:04,VALID,1003.28,VALID,0,INVALID,163.792,VALID,0,VALID,22.5536,VALID,52,VALID,0.435937,
2010-11-01, 01:41:04,VALID,1003.28,VALID,0,INVALID,163.807,VALID,0,VALID,22.5342,VALID,98,VALID,0.458594,
2010-11-01, 01:42:04,VALID,1003.28,VALID,0,INVALID,163.769,VALID,0,VALID,22.5147,VALID,99,VALID,0.851172,
2010-11-01, 01:43:04,VALID,1003.25,VALID,0,INVALID,163.792,VALID,0,VALID,22.5164,VALID,106,VALID,0.936719,
2010-11-01, 01:44:04,VALID,1003.24,VALID,0,INVALID,163.792,VALID,0,VALID,22.4953,VALID,88,VALID,0.463281,
2010-11-01, 01:45:04,VALID,1003.26,VALID,0.5,INVALID,163.815,VALID,0,VALID,22.5553,VALID,70,VALID,0.599219,
2010-11-01, 01:46:04,VALID,1003.26,VALID,0,INVALID,163.83,VALID,0,VALID,22.5147,VALID,26,VALID,0.902344,
2010-11-01, 01:47:04,VALID,1003.24,VALID,0,INVALID,163.792,VALID,0,VALID,22.5553,VALID,13,VALID,1.03359,
2010-11-01, 01:48:04,VALID,1003.25,VALID,0,INVALID,163.777,VALID,0,VALID,22.5342,VALID,8,VALID,0.54375,
2010-11-01, 01:49:04,VALID,1003.27,VALID,0,INVALID,163.807,VALID,0,VALID,22.5553,VALID,36,VALID,1.19062,
2010-11-01, 01:50:04,VALID,1003.28,VALID,0,INVALID,163.807,VALID,0,VALID,22.513,VALID,19,VALID,1.28359,
2010-11-01, 01:51:04,VALID,1003.27,VALID,0,INVALID,163.815,VALID,0,VALID,22.5164,VALID,14,VALID,0.809375,
2010-11-01, 01:52:04,VALID,1003.29,VALID,0,INVALID,163.792,VALID,0,VALID,22.5359,VALID,21,VALID,0.883594,
2010-11-01, 01:53:04,VALID,1003.31,VALID,0,INVALID,163.777,VALID,0,VALID,22.5748,VALID,34,VALID,0.592188,
2010-11-01, 01:54:04,VALID,1003.34,VALID,0.5,INVALID,163.784,VALID,0,VALID,22.5536,VALID,60,VALID,0.850391,
2010-11-01, 01:55:04,VALID,1003.36,VALID,0,INVALID,163.784,VALID,0,VALID,22.5748,VALID,77,VALID,0.753906,
2010-11-01, 01:56:04,VALID,1003.35,VALID,1,INVALID,163.8,VALID,0,VALID,22.5731,VALID,67,VALID,1.36055,
2010-11-01, 01:57:04,VALID,1003.33,VALID,0.5,INVALID,163.815,VALID,0,VALID,22.5942,VALID,24,VALID,0.558203,
2010-11-01, 01:58:04,VALID,1003.29,VALID,0.5,INVALID,163.807,VALID,0,VALID,22.5748,VALID,5,VALID,0.873828,
2010-11-01, 01:59:04,VALID,1003.31,VALID,0.5,INVALID,163.777,VALID,0,VALID,22.5748,VALID,11,VALID,0.507031,
2010-11-01, 02:00:04,VALID,1003.32,VALID,0,INVALID,163.777,VALID,0,VALID,22.5942,VALID,16,VALID,0.580859,
2010-11-01, 02:01:04,VALID,1003.37,VALID,0.5,INVALID,163.762,VALID,0,VALID,22.5925,VALID,16,VALID,0.249219,
2010-11-01, 02:02:04,VALID,1003.39,VALID,0,INVALID,163.784,VALID,0,VALID,22.6332,VALID,80,VALID,0.928516,
2010-11-01, 02:03:04,VALID,1003.41,VALID,0.5,INVALID,163.792,VALID,0,VALID,22.6526,VALID,114,VALID,0.246875,
2010-11-01, 02:04:04,VALID,1003.41,VALID,0,INVALID,163.792,VALID,0,VALID,22.6509,VALID,48,VALID,0.552734,
2010-11-01, 02:05:04,VALID,1003.4,VALID,0,INVALID,163.792,VALID,0,VALID,22.6915,VALID,19,VALID,0.876953,
2010-11-01, 02:06:04,VALID,1003.42,VALID,0,INVALID,163.769,VALID,0,VALID,22.6915,VALID,19,VALID,0.694531,
2010-11-01, 02:07:04,VALID,1003.4,VALID,0.5,INVALID,163.784,VALID,0,VALID,22.6898,VALID,35,VALID,0.340625,
2010-11-01, 02:08:04,VALID,1003.39,VALID,0,INVALID,163.792,VALID,0,VALID,22.7093,VALID,35,VALID,0.253906,
2010-11-01, 02:09:04,VALID,1003.37,VALID,0,INVALID,163.792,VALID,0,VALID,22.7305,VALID,48,VALID,0.452734,
2010-11-01, 02:10:04,VALID,1003.33,VALID,0.5,INVALID,163.784,VALID,0,VALID,22.7093,VALID,48,VALID,0.101953,
2010-11-01, 02:11:04,VALID,1003.34,VALID,0,INVALID,163.754,VALID,0,VALID,22.7499,VALID,47,VALID,0.261328,
2010-11-01, 02:12:04,VALID,1003.31,VALID,0,INVALID,163.762,VALID,0,VALID,22.7287,VALID,47,VALID,0.2,
2010-11-01, 02:13:04,VALID,1003.29,VALID,0,INVALID,163.739,VALID,0,VALID,22.7677,VALID,47,VALID,0.248047,
2010-11-01, 02:14:04,VALID,1003.31,VALID,0.5,INVALID,163.723,VALID,0,VALID,22.7888,VALID,47,VALID,0.0121094,
2010-11-01, 02:15:04,VALID,1003.31,VALID,0,INVALID,163.754,VALID,0,VALID,22.7871,VALID,47,VALID,0.00117188,
2010-11-01, 02:16:04,VALID,1003.39,VALID,0.5,INVALID,163.716,VALID,0,VALID,22.8083,VALID,47,VALID,0.341016,
2010-11-01, 02:17:04,VALID,1003.39,VALID,0,INVALID,163.731,VALID,0,VALID,22.7871,VALID,47,VALID,0.554297,
2010-11-01, 02:18:04,VALID,1003.41,VALID,0,INVALID,163.746,VALID,0,VALID,22.7871,VALID,44,VALID,0.421875,
2010-11-01, 02:19:04,VALID,1003.45,VALID,0,INVALID,163.685,VALID,0,VALID,22.8066,VALID,37,VALID,0.655469,
2010-11-01, 02:20:04,VALID,1003.43,VALID,0.5,INVALID,163.54,VALID,0,VALID,22.8472,VALID,65,VALID,0.363281,
2010-11-01, 02:21:04,VALID,1003.45,VALID,0,INVALID,163.395,VALID,0,VALID,22.8649,VALID,65,VALID,0.0992187,
2010-11-01, 02:22:04,VALID,1003.45,VALID,0,INVALID,163.281,VALID,0,VALID,22.8844,VALID,65,VALID,0,
2010-11-01, 02:23:04,VALID,1003.45,VALID,0.5,INVALID,163.128,VALID,0,VALID,22.8827,VALID,65,VALID,0.00585938,
2010-11-01, 02:24:04,VALID,1003.44,VALID,0,INVALID,162.961,VALID,0,VALID,22.9233,VALID,65,VALID,0,
2010-11-01, 02:25:04,VALID,1003.44,VALID,0,INVALID,162.77,VALID,0,VALID,22.9428,VALID,65,VALID,0.000390625,
2010-11-01, 02:26:04,VALID,1003.42,VALID,0.5,INVALID,162.686,VALID,0,VALID,22.9622,VALID,47,VALID,0.516797,
2010-11-01, 02:27:04,VALID,1003.41,VALID,0,INVALID,162.808,VALID,0,VALID,22.9251,VALID,7,VALID,0.428125,
2010-11-01, 02:28:04,VALID,1003.42,VALID,0,INVALID,162.816,VALID,0,VALID,22.8844,VALID,7,VALID,0.243359,
2010-11-01, 02:29:04,VALID,1003.41,VALID,0,INVALID,162.724,VALID,0,VALID,22.8844,VALID,7,VALID,0.252734,
2010-11-01, 02:30:04,VALID,1003.4,VALID,0.5,INVALID,162.655,VALID,0,VALID,22.8649,VALID,7,VALID,0.171094,
2010-11-01, 02:31:04,VALID,1003.37,VALID,0,INVALID,162.51,VALID,0,VALID,22.9056,VALID,7,VALID,0.214062,
2010-11-01, 02:32:04,VALID,1003.37,VALID,0,INVALID,162.442,VALID,0,VALID,22.8649,VALID,7,VALID,0,
2010-11-01, 02:33:04,VALID,1003.32,VALID,0,INVALID,162.312,VALID,0,VALID,22.8649,VALID,7,VALID,0,
2010-11-01, 02:34:04,VALID,1003.35,VALID,0,INVALID,162.167,VALID,0,VALID,22.8455,VALID,7,VALID,0,
2010-11-01, 02:35:04,VALID,1003.35,VALID,0,INVALID,161.999,VALID,0,VALID,22.8844,VALID,7,VALID,0,
2010-11-01, 02:36:04,VALID,1003.38,VALID,0,INVALID,161.9,VALID,0,VALID,22.9039,VALID,7,VALID,0.541406,
2010-11-01, 02:37:04,VALID,1003.38,VALID,0,INVALID,161.763,VALID,0,VALID,22.8844,VALID,7,VALID,0.471094,
2010-11-01, 02:38:04,VALID,1003.35,VALID,0.5,INVALID,161.603,VALID,0,VALID,22.8844,VALID,7,VALID,0.663281,
2010-11-01, 02:39:04,VALID,1003.41,VALID,0,INVALID,161.58,VALID,0,VALID,22.8649,VALID,2,VALID,0.521484,
2010-11-01, 02:40:04,VALID,1003.43,VALID,0,INVALID,161.503,VALID,0,VALID,22.8861,VALID,1,VALID,0.444922,
2010-11-01, 02:41:04,VALID,1003.45,VALID,0,INVALID,161.549,VALID,0,VALID,22.8243,VALID,357,VALID,0.526953,
2010-11-01, 02:42:04,VALID,1003.48,VALID,0,INVALID,161.503,VALID,0,VALID,22.826,VALID,357,VALID,0.608594,
2010-11-01, 02:43:04,VALID,1003.52,VALID,0.5,INVALID,161.351,VALID,0,VALID,22.826,VALID,357,VALID,0.485938,
2010-11-01, 02:44:04,VALID,1003.55,VALID,0,INVALID,161.236,VALID,0,VALID,22.826,VALID,357,VALID,0.471484,
2010-11-01, 02:45:04,VALID,1003.53,VALID,0,INVALID,161.13,VALID,0,VALID,22.826,VALID,357,VALID,0.470703,
2010-11-01, 02:46:04,VALID,1003.59,VALID,0,INVALID,160.924,VALID,0,VALID,22.8243,VALID,357,VALID,0.621875,
2010-11-01, 02:47:04,VALID,1003.58,VALID,0,INVALID,160.809,VALID,0,VALID,22.826,VALID,357,VALID,0.478125,
2010-11-01, 02:48:04,VALID,1003.63,VALID,0,INVALID,160.695,VALID,0,VALID,22.8455,VALID,357,VALID,0.679688,
2010-11-01, 02:49:04,VALID,1003.61,VALID,0.5,INVALID,160.725,VALID,0,VALID,22.826,VALID,357,VALID,0.661719,
2010-11-01, 02:50:04,VALID,1003.64,VALID,0,INVALID,160.58,VALID,0,VALID,22.8455,VALID,357,VALID,0.667969,
2010-11-01, 02:51:04,VALID,1003.66,VALID,0,INVALID,160.367,VALID,0,VALID,22.8472,VALID,357,VALID,0.514453,
2010-11-01, 02:52:04,VALID,1003.66,VALID,0,INVALID,160.184,VALID,0,VALID,22.8455,VALID,357,VALID,0.588672,
2010-11-01, 02:53:04,VALID,1003.68,VALID,0,INVALID,160.062,VALID,0,VALID,22.8455,VALID,357,VALID,0.348437,
2010-11-01, 02:54:04,VALID,1003.66,VALID,0,INVALID,159.894,VALID,0,VALID,22.8861,VALID,357,VALID,0,
2010-11-01, 02:55:04,VALID,1003.67,VALID,0.5,INVALID,159.741,VALID,0,VALID,22.8844,VALID,357,VALID,0.00195313,
2010-11-01, 02:56:04,VALID,1003.68,VALID,0,INVALID,159.611,VALID,0,VALID,22.9251,VALID,357,VALID,0.0886719,
2010-11-01, 02:57:04,VALID,1003.67,VALID,0,INVALID,159.512,VALID,0,VALID,22.9056,VALID,357,VALID,0.240234,
2010-11-01, 02:58:04,VALID,1003.73,VALID,0,INVALID,159.428,VALID,0,VALID,22.9056,VALID,357,VALID,0.160156,
2010-11-01, 02:59:04,VALID,1003.74,VALID,0,INVALID,159.344,VALID,0,VALID,22.8844,VALID,357,VALID,0.269141,
2010-11-01, 03:00:04,VALID,1003.76,VALID,0,INVALID,159.184,VALID,0,VALID,22.8844,VALID,357,VALID,0.603906,
2010-11-01, 03:01:04,VALID,1003.79,VALID,0,INVALID,159.169,VALID,0,VALID,22.9056,VALID,357,VALID,0.624609,
2010-11-01, 03:02:04,VALID,1003.82,VALID,0,INVALID,159.009,VALID,0,VALID,22.9039,VALID,26,VALID,0.900391,
2010-11-01, 03:03:04,VALID,1003.81,VALID,0.5,INVALID,159.306,VALID,0,VALID,22.826,VALID,33,VALID,1.00977,
2010-11-01, 03:04:04,VALID,1003.86,VALID,0,INVALID,159.245,VALID,0,VALID,22.8048,VALID,33,VALID,0.360938,
2010-11-01, 03:05:04,VALID,1003.86,VALID,0,INVALID,159.291,VALID,0,VALID,22.7871,VALID,34,VALID,0.786719,
2010-11-01, 03:06:04,VALID,1003.87,VALID,0,INVALID,159.306,VALID,0,VALID,22.7694,VALID,22,VALID,0.326562,
2010-11-01, 03:07:04,VALID,1003.9,VALID,0,INVALID,159.299,VALID,0,VALID,22.7711,VALID,63,VALID,0.778906,
2010-11-01, 03:08:04,VALID,1003.86,VALID,0,INVALID,159.23,VALID,0,VALID,22.7287,VALID,74,VALID,0.707422,
2010-11-01, 03:09:04,VALID,1003.86,VALID,0.5,INVALID,159.138,VALID,0,VALID,22.7499,VALID,72,VALID,0.433594,
2010-11-01, 03:10:04,VALID,1003.87,VALID,0,INVALID,159.062,VALID,0,VALID,22.7093,VALID,76,VALID,0.416406,
2010-11-01, 03:11:04,VALID,1003.87,VALID,0,INVALID,159.024,VALID,0,VALID,22.7093,VALID,71,VALID,0.341016,
2010-11-01, 03:12:04,VALID,1003.86,VALID,0,INVALID,158.948,VALID,0,VALID,22.711,VALID,35,VALID,0.552734,
2010-11-01, 03:13:04,VALID,1003.87,VALID,0,INVALID,158.856,VALID,0,VALID,22.7093,VALID,27,VALID,1.05313,
2010-11-01, 03:14:04,VALID,1003.88,VALID,0,INVALID,158.879,VALID,0,VALID,22.7305,VALID,34,VALID,0.491406,
2010-11-01, 03:15:04,VALID,1003.87,VALID,0,INVALID,158.803,VALID,0,VALID,22.7093,VALID,33,VALID,0.73125,
2010-11-01, 03:16:04,VALID,1003.89,VALID,0,INVALID,158.826,VALID,0,VALID,22.6898,VALID,32,VALID,0.646484,
2010-11-01, 03:17:04,VALID,1003.93,VALID,0,INVALID,158.742,VALID,0,VALID,22.7305,VALID,16,VALID,0.728516,
2010-11-01, 03:18:04,VALID,1003.93,VALID,0,INVALID,158.826,VALID,0,VALID,22.7305,VALID,21,VALID,0.833984,
2010-11-01, 03:19:04,VALID,1003.96,VALID,0.5,INVALID,158.788,VALID,0,VALID,22.7305,VALID,35,VALID,0.885938,
2010-11-01, 03:20:04,VALID,1003.97,VALID,0,INVALID,158.818,VALID,0,VALID,22.7093,VALID,28,VALID,0.787891,
2010-11-01, 03:21:04,VALID,1004,VALID,0,INVALID,158.826,VALID,0,VALID,22.7093,VALID,26,VALID,0.748438,
2010-11-01, 03:22:04,VALID,1003.98,VALID,0,INVALID,158.91,VALID,0,VALID,22.6686,VALID,25,VALID,0.973047,
2010-11-01, 03:23:04,VALID,1003.99,VALID,0,INVALID,158.94,VALID,0,VALID,22.6898,VALID,20,VALID,1.12227,
2010-11-01, 03:24:04,VALID,1003.99,VALID,0,INVALID,159.055,VALID,0,VALID,22.6492,VALID,19,VALID,0.946484,
2010-11-01, 03:25:04,VALID,1003.99,VALID,0.5,INVALID,159.39,VALID,0,VALID,22.6315,VALID,23,VALID,0.854688,
2010-11-01, 03:26:04,VALID,1004.02,VALID,0,INVALID,159.718,VALID,0,VALID,22.6332,VALID,32,VALID,0.874609,
2010-11-01, 03:27:04,VALID,1004.05,VALID,0,INVALID,159.734,VALID,0,VALID,22.6332,VALID,32,VALID,0.766797,
2010-11-01, 03:28:04,VALID,1004.04,VALID,0,INVALID,159.924,VALID,0,VALID,22.5925,VALID,20,VALID,0.873828,
2010-11-01, 03:29:04,VALID,1004.05,VALID,0,INVALID,160.077,VALID,0,VALID,22.5925,VALID,21,VALID,0.761719,
2010-11-01, 03:30:04,VALID,1004.04,VALID,0,INVALID,160.138,VALID,0,VALID,22.612,VALID,360,VALID,0.587109,
2010-11-01, 03:31:04,VALID,1004.06,VALID,0.5,INVALID,160.275,VALID,0,VALID,22.6332,VALID,38,VALID,0.515625,
2010-11-01, 03:32:04,VALID,1004.03,VALID,0,INVALID,160.519,VALID,0.100563,VALID,22.6315,VALID,47,VALID,0.525781,
2010-11-01, 03:33:04,VALID,1004.04,VALID,0,INVALID,160.565,VALID,0,VALID,22.6721,VALID,11,VALID,1.17031,
2010-11-01, 03:34:04,VALID,1004.06,VALID,0,INVALID,160.527,VALID,0,VALID,22.6704,VALID,9,VALID,0.891016,
2010-11-01, 03:35:04,VALID,1003.98,VALID,0,INVALID,160.649,VALID,0,VALID,22.6898,VALID,22,VALID,0.616406,
2010-11-01, 03:36:04,VALID,1003.96,VALID,0,INVALID,160.779,VALID,0.100563,VALID,22.711,VALID,39,VALID,0.355469,
2010-11-01, 03:37:04,VALID,1003.94,VALID,0,INVALID,160.901,VALID,0,VALID,22.6898,VALID,27,VALID,0.810938,
2010-11-01, 03:38:04,VALID,1003.94,VALID,0.5,INVALID,161.084,VALID,0.100563,VALID,22.711,VALID,11,VALID,0.516016,
2010-11-01, 03:39:04,VALID,1003.94,VALID,0,INVALID,161.267,VALID,0.100563,VALID,22.6898,VALID,46,VALID,0.537109,
2010-11-01, 03:40:04,VALID,1003.95,VALID,0,INVALID,161.435,VALID,0.100563,VALID,22.6898,VALID,49,VALID,0.0375,
2010-11-01, 03:41:04,VALID,1003.96,VALID,0,INVALID,161.519,VALID,0.100563,VALID,22.6898,VALID,49,VALID,0,
2010-11-01, 03:42:04,VALID,1003.95,VALID,0,INVALID,161.732,VALID,0.201126,VALID,22.711,VALID,49,VALID,0.419531,